Location: East Guldeford
(50.9500°N, 0.7500°E)
Time: 09:45:10
(UTC+00:00)

Cosmos 2278 Rocket - Pass Details

Date: 12 May 2021
Orbit: 841 x 845 km, 71.0° (Epoch: 16 June)

Event Time Altitude Azimuth Distance (km) Brightness Sun altitude
Rises 21:46:19 0° 218° (SW) 3,387 5.1 -15.3°
Reaches altitude 10° 21:48:46 10° 221° (SW) 2,456 4.4 -15.5°
Maximum altitude 21:54:23 66° 303° (WNW) 921 2.6 -15.9°
Drops below altitude 10° 22:00:02 10° 26° (NNE) 2,471 5.1 -16.4°
Sets 22:02:31 0° 29° (NNE) 3,410 5.8 -16.5°
